Change the Weather History Date:

Sunday, July 28, 2013

  Actual Average Record
Temperature  
Mean Temperature 67 °F 79 °F  
Max Temperature 75 °F 90 °F 106 °F (1980)
Min Temperature 58 °F 68 °F 52 °F (2005)
Degree Days  
Heating Degree Days 0 0  
Month to date heating degree days 0 0  
Since 1 June heating degree days 5 8  
Since 1 July heating degree days 0 0  
Cooling Degree Days 2 14  
Month to date cooling degree days 398 387  
Year to date cooling degree days 880 797  
Since 1 June cooling degree days 735 671  
Growing Degree Days 16 (Base 50)    
Moisture  
Dew Point 55 °F    
Average Humidity 67    
Maximum Humidity 93    
Minimum Humidity 41    
Precipitation  
Precipitation 0.03 in 0.10 in 2.99 in (2009)
Month to date precipitation 0.44 3.47  
Year to date precipitation 17.92 21.98  
Snow  
Snow 0.00 in 0.00 in 0.00 in ()
Month to date snowfall 0.0 0.0  
Year to date snowfall 24.2 11.3  
Since 1 July snowfall 0.0 0.0  
Snow Depth 0.00 in    
Sea Level Pressure  
Sea Level Pressure 30.05 in    
Wind  
Wind Speed 3 mph (SE)    
Max Wind Speed 12 mph    
Max Gust Speed 14 mph    
Visibility 10 miles    
Events Rain    
T = Trace of Precipitation, MM = Missing Value Source: NWS Daily Summary

Daily Weather History Graph

Daily Weather History Graph

Search for Another Location

Airport or City:

Trip Planner

Search our weather history database for the weather conditions in past years. The results will help you decide how hot, cold, wet, or windy it might be!

Date:

Astronomy

Jul. 28, 2013 Rise Set
Actual Time 6:19 AM CDT 8:37 PM CDT
Civil Twilight 5:49 AM CDT 9:07 PM CDT
Nautical Twilight 5:12 AM CDT 9:44 PM CDT
Astronomical Twilight 4:31 AM CDT 10:25 PM CDT
Moon No Moon Rise 12:59 PM CDT (7/28)
Length of Visible Light 15h 18m
Length of Day
14h 17m
Waning Gibbous, 60% of the Moon is Illuminated
Jul 28
Waning Gibbous
Jul 29
Last Quarter
Aug 6
New
Aug 14
First Quarter
Aug 20
Full

Hourly Weather History & Observations

Time (CDT) Temp. Dew Point Humidity Pressure Visibility Wind Dir Wind Speed Gust Speed Precip Events Conditions
12:53 AM 60.1 °F 55.9 °F 86% 30.04 in 10.0 mi SSW 3.5 mph - N/A   Clear
1:53 AM 59.0 °F 55.9 °F 90% 30.04 in 8.0 mi Calm Calm - N/A   Mostly Cloudy
2:53 AM 61.0 °F 57.9 °F 90% 30.04 in 10.0 mi Calm Calm - N/A   Mostly Cloudy
3:53 AM 60.1 °F 57.0 °F 90% 30.04 in 10.0 mi Calm Calm - N/A   Mostly Cloudy
4:53 AM 59.0 °F 57.0 °F 93% 30.05 in 10.0 mi Calm Calm - N/A   Scattered Clouds
5:53 AM 60.1 °F 57.0 °F 90% 30.05 in 10.0 mi Calm Calm - N/A   Overcast
6:53 AM 57.9 °F 55.0 °F 90% 30.05 in 9.0 mi Calm Calm - N/A   Clear
7:53 AM 62.1 °F 55.9 °F 80% 30.06 in 10.0 mi Calm Calm - N/A   Mostly Cloudy
8:53 AM 66.9 °F 55.9 °F 68% 30.06 in 10.0 mi ENE 3.5 mph - N/A   Clear
9:53 AM 68.0 °F 54.0 °F 61% 30.06 in 10.0 mi ESE 4.6 mph - N/A   Clear
10:53 AM 71.1 °F 53.1 °F 53% 30.05 in 10.0 mi ESE 3.5 mph - N/A   Partly Cloudy
11:53 AM 73.0 °F 48.0 °F 41% 30.05 in 10.0 mi ESE 4.6 mph - N/A   Overcast
12:53 PM 73.9 °F 51.1 °F 45% 30.05 in 10.0 mi SE 9.2 mph - N/A   Mostly Cloudy
1:53 PM 73.9 °F 51.1 °F 45% 30.04 in 10.0 mi SSE 6.9 mph - N/A   Mostly Cloudy
2:53 PM 73.9 °F 52.0 °F 46% 30.05 in 10.0 mi SW 8.1 mph - N/A   Overcast
3:53 PM 73.0 °F 51.1 °F 46% 30.04 in 10.0 mi South 9.2 mph - N/A   Mostly Cloudy
4:53 PM 72.0 °F 52.0 °F 49% 30.04 in 10.0 mi South 9.2 mph - N/A   Overcast
5:53 PM 70.0 °F 53.1 °F 55% 30.03 in 10.0 mi SE 4.6 mph - N/A   Overcast
6:53 PM 69.1 °F 55.9 °F 63% 30.03 in 10.0 mi Calm Calm - 0.00 in Rain Light Rain
7:53 PM 66.9 °F 57.9 °F 73% 30.03 in 10.0 mi Calm Calm - 0.01 in   Scattered Clouds
8:53 PM 66.0 °F 59.0 °F 78% 30.03 in 10.0 mi East 3.5 mph - N/A   Clear
9:53 PM 66.0 °F 57.9 °F 75% 30.05 in 10.0 mi SW 3.5 mph - N/A   Scattered Clouds
10:53 PM 64.9 °F 59.0 °F 81% 30.06 in 10.0 mi SSE 3.5 mph - 0.00 in Rain Light Rain
11:53 PM 64.0 °F 60.1 °F 87% 30.06 in 10.0 mi East 4.6 mph - 0.01 in   Partly Cloudy